This demonstration page uses our WeatherBlox Daily Observations layout. Learn more.

Left ArrowRight Arrow

38.83388, -104.82136

Hourly Observations for January 15, 2017

Temp ( °F °C ) Dew Point ( °F °C ) Humidity (%) Winds ( mph kmh ) Pressure ( in mb ) Visibility ( mi km ) Precip ( " mm )
12:58 am 00:58 Partly Cloudy 32 0.2 25 -4.1 73 73 Calm 29.81 1009 10 16 N/A
1:58 am 01:58 Mostly Cloudy 34 0.9 25 -3.9 71 71 NNE 3 6 29.75 1007 10 16 N/A
2:58 am 02:58 Mostly Cloudy 35 1.8 25 -3.9 66 66 WNW 5 7 29.77 1008 10 16 N/A
3:58 am 03:58 Mostly Cloudy 32 0.2 24 -4.3 72 72 N 3 6 29.80 1009 10 16 N/A
4:58 am 04:58 Mostly Cloudy 31 -0.5 24 -4.2 76 76 NNW 13 20 29.80 1009 10 16 N/A
5:58 am 05:58 Mostly Cloudy 31 -0.4 24 -4.3 75 75 NNW 7 11 29.79 1009 10 16 N/A
6:35 am 06:35 Cloudy with Light Rain 30 -1 25 -4 80 80 NNW 12 19 30.06 1018 10 16 N/A
6:56 am 06:56 Cloudy 30 -1 25 -4 80 80 NNW 10 17 30.06 1018 10 16 N/A
6:58 am 06:58 Cloudy 31 -0.8 24 -4.3 77 77 NNW 9 15 29.79 1009 10 16 N/A
7:58 am 07:58 Cloudy 31 -0.3 24 -4.4 74 74 N 7 11 29.78 1009 10 16 N/A
7:59 am 07:59 Cloudy with Light Rain 32 0 25 -4 75 75 N 9 15 30.03 1017 10 16 N/A
8:58 am 08:58 Cloudy with Light Snow Showers 27 -2.6 25 -3.8 92 92 NNE 6 9 29.81 1009 2 3 N/A
9:38 am 09:38 Cloudy with Light Snow 28 -2 27 -3 93 93 N 9 15 30.09 1019 3 4 N/A
9:53 am 09:53 Cloudy with Light Snow 28 -2 27 -3 93 93 N 13 20 30.06 1018 2 3 N/A
9:58 am 09:58 Cloudy with Light Snow 29 -1.8 27 -2.9 92 92 N 15 24 29.77 1008 2 4 N/A
10:28 am 10:28 Cloudy with Light Snow 28 -2 27 -3 93 93 N 9 15 30.09 1019 3 5 N/A
10:58 am 10:58 Cloudy with Light Snow 29 -1.8 28 -2.2 97 97 NNW 7 11 29.80 1009 7 11 N/A
11:03 am 11:03 Cloudy with Light Snow 28 -2 28 -2 100 100 N 7 11 30.06 1018 2 3 N/A
11:58 am 11:58 Mostly Cloudy with Light Snow 31 -0.3 29 -1.4 92 92 N 13 20 29.72 1006 3 5 0.01 0.25
12:13 pm 12:13 Mostly Cloudy with Light Snow 32 0 30 -1 93 93 N 14 22 29.97 1015 5 8 N/A
12:37 pm 12:37 Cloudy 34 1 30 -1 87 87 N 10 17 29.94 1014 10 16 N/A
12:42 pm 12:42 Cloudy 34 1 30 -1 87 87 N 10 17 29.94 1014 10 16 N/A
12:47 pm 12:47 Cloudy 34 1 30 -1 87 87 N 12 19 29.91 1013 10 16 N/A
12:58 pm 12:58 Cloudy 34 1.1 30 -0.9 87 87 N 7 11 29.66 1004 10 16 N/A
1:58 pm 13:58 Mostly Cloudy with Mist and Fog 31 -0.3 31 -0.8 96 96 ENE 3 6 29.65 1004 2 2 N/A
2:03 pm 14:03 Mostly Cloudy with Mist and Fog 32 0 30 -1 93 93 ESE 3 6 29.94 1014 1 2 N/A
2:58 pm 14:58 Mostly Cloudy with Mist and Fog 31 -0.5 31 -0.6 99 99 N 6 9 29.64 1004 3 5 N/A
3:18 pm 15:18 Cloudy 32 0 28 -2 87 87 N 14 22 29.88 1012 10 16 N/A
3:58 pm 15:58 Cloudy 32 0 28 -2 87 87 N 16 26 29.63 1004 10 16 N/A
4:28 pm 16:28 Mostly Cloudy 32 0 28 -2 87 87 N 10 17 29.88 1012 10 16 N/A
4:38 pm 16:38 Cloudy 32 0 28 -2 87 87 NNE 7 11 29.88 1012 9 14 N/A
4:53 pm 16:53 Mostly Cloudy with Patchy Fog 30 -1 28 -2 93 93 Calm 29.91 1013 1 2 N/A
5:08 pm 17:08 Mostly Cloudy with Patchy Fog 30 -1 28 -2 93 93 Calm 29.91 1013 1 2 N/A
5:09 pm 17:09 Mostly Cloudy with Light Rain 30 -1 30 -1 100 100 Calm 29.91 1013 1 2 N/A
5:14 pm 17:14 Mostly Cloudy with Light Rain 30 -1 30 -1 100 100 N 3 6 29.91 1013 3 5 N/A
5:19 pm 17:19 Mostly Cloudy with Light Rain 30 -1 30 -1 100 100 N 8 13 29.91 1013 1 1 N/A
5:34 pm 17:34 Mostly Cloudy with Light Showers 30 -1 30 -1 100 100 N 8 13 29.91 1013 4 6 N/A
5:45 pm 17:45 Cloudy with Mist and Fog 30 -1 30 -1 100 100 N 7 11 29.91 1013 4 6 N/A
5:58 pm 17:58 Cloudy with Mist and Fog 30 -0.9 29 -1.5 96 96 N 9 15 29.66 1005 4 6 N/A
6:01 pm 18:01 Cloudy with Light Showers 30 -1 30 -1 100 100 NNW 9 15 29.91 1013 4 6 N/A
6:58 pm 18:58 Cloudy with Light Showers 31 -0.5 29 -1.5 93 93 N 13 20 29.63 1004 6 10 N/A
7:23 pm 19:23 Cloudy with Light Snow 30 -1 30 -1 100 100 N 8 13 29.91 1013 6 10 N/A
7:28 pm 19:28 Cloudy with Light Snow 30 -1 30 -1 100 100 N 9 15 29.91 1013 5 8 N/A
7:33 pm 19:33 Cloudy with Light Snow Showers 30 -1 30 -1 100 100 N 7 11 29.91 1013 5 8 N/A
7:53 pm 19:53 Mostly Cloudy with Light Snow Showers 30 -1 30 -1 100 100 N 8 13 29.91 1013 3 5 N/A
7:58 pm 19:58 Mostly Cloudy with Light Snow Showers 30 -1.3 29 -1.5 99 99 N 9 15 29.65 1004 1 2 N/A
8:39 pm 20:39 Mostly Cloudy with Mist and Fog 30 -1 30 -1 100 100 N 10 17 29.88 1012 2 2 N/A
8:58 pm 20:58 Cloudy with Mist and Fog 29 -1.4 29 -1.5 99 99 N 8 13 29.66 1004 7 11 N/A
9:03 pm 21:03 Cloudy with Light Snow Showers 30 -1 28 -2 93 93 N 9 15 29.88 1012 2 3 N/A
9:33 pm 21:33 Mostly Cloudy with Light Snow 28 -2 28 -2 100 100 N 7 11 29.94 1014 1 2 N/A
9:43 pm 21:43 Mostly Cloudy with Light Snow 28 -2 28 -2 100 100 NNW 12 19 29.91 1013 1 2 N/A
9:58 pm 21:58 Mostly Cloudy with Light Snow 29 -1.6 29 -1.7 99 99 N 13 20 29.66 1004 1 2 N/A
10:08 pm 22:08 Mostly Cloudy with Light Snow 28 -2 28 -2 100 100 N 13 20 29.91 1013 7 11 N/A
10:38 pm 22:38 Mostly Cloudy with Light Snow 30 -1 32 0 100 100 NNW 12 19 29.91 1013 2 3 N/A
10:43 pm 22:43 Cloudy with Light Snow 32 0 32 0 100 100 N 12 19 29.85 1011 2 3 N/A
10:58 pm 22:58 Cloudy with Light Snow 32 -0.1 31 -0.8 95 95 NNW 16 26 29.64 1004 2 3 0.01 0.25
11:08 pm 23:08 Cloudy with Light Snow 32 0 30 -1 93 93 NNW 15 24 29.85 1011 2 3 N/A
11:23 pm 23:23 Cloudy with Light Snow 32 0 30 -1 93 93 N 16 26 29.85 1011 7 11 N/A
11:33 pm 23:33 Cloudy with Light Snow 32 0 30 -1 93 93 NNW 17 28 29.85 1011 3 5 N/A
11:43 pm 23:43 Cloudy with Light Snow 32 0 30 -1 93 93 NNW 16 26 29.85 1011 4 6 N/A
11:58 pm 23:58 Cloudy with Light Snow 32 0 29 -1.4 90 90 NNW 14 22 29.59 1002 7 11 N/A

Powered by AerisWeather